N3LF Weather Reports


time (UTC)temp
C
wind
direction
speed
KPH
gust
KPH
rain 1hr
cm
rain 24hr
cm
rain mn
cm
humidity
%
barometer
mb
20260906121444 23 267 0.0 0.0 0.00 0.00 0.00 98 1015.8
20260906120940 22 267 0.0 0.0 0.00 0.00 0.00 99 1015.7
20260906120435 22 267 0.0 0.0 0.00 0.00 0.00 99 1015.7
20260906115931 22 267 0.0 0.0 0.00 0.00 0.00 99 1015.5
20260906115427 22 268 0.0 0.0 0.00 0.00 0.00 99 1015.5
20260906114927 22 270 0.0 1.6 0.00 0.00 0.00 99 1015.5
20260906114427 22 271 0.0 3.2 0.00 0.00 0.00 99 1015.4
20260906113923 22 247 0.0 0.0 0.00 0.00 0.00 99 1015.4
20260906113421 22 246 0.0 0.0 0.00 0.00 0.00 99 1015.5
20260906112917 22 240 0.0 0.0 0.00 0.00 0.00 99 1015.6
20260906112412 22 242 0.0 0.0 0.00 0.00 0.00 99 1015.3
20260906111908 22 242 0.0 0.0 0.00 0.00 0.00 99 1015.2
20260906111407 22 217 1.6 1.6 0.00 0.00 0.00 99 1015.2
20260906110902 22 265 0.0 0.0 0.00 0.00 0.00 99 1014.9
20260906110357 22 265 0.0 0.0 0.00 0.00 0.00 99 1014.8
20260906105856 22 21 0.0 0.0 0.00 0.00 0.00 98 1014.8
20260906105353 22 21 0.0 0.0 0.00 0.00 0.00 98 1014.8
20260906104848 22 21 0.0 0.0 0.00 0.00 0.00 98 1014.6
20260906104347 22 207 0.0 0.0 0.00 0.00 0.00 98 1014.7
20260906103845 22 208 0.0 0.0 0.00 0.00 0.00 99 1014.5
20260906103344 22 173 0.0 0.0 0.00 0.00 0.00 99 1014.6
20260906102840 22 168 0.0 0.0 0.00 0.00 0.00 98 1014.6
20260906102338 23 173 0.0 0.0 0.00 0.00 0.00 98 1014.5
20260906101834 23 173 0.0 0.0 0.00 0.00 0.00 98 1014.6
20260906101329 23 173 0.0 0.0 0.00 0.00 0.00 98 1014.3
20260906100825 23 171 0.0 0.0 0.00 0.00 0.00 97 1014.3
20260906100323 23 172 0.0 0.0 0.00 0.00 0.00 97 1014.2
20260906095819 23 170 0.0 0.0 0.00 0.00 0.00 97 1014.1
20260906095314 23 163 0.0 0.0 0.00 0.00 0.00 97 1014.1
20260906094814 23 109 0.0 0.0 0.00 0.00 0.00 98 1014.1
20260906094309 23 222 0.0 0.0 0.00 0.00 0.00 98 1014.2
20260906093805 23 216 0.0 0.0 0.00 0.00 0.00 98 1014.4
20260906093301 23 222 0.0 0.0 0.00 0.00 0.00 98 1014.3
20260906092756 23 207 0.0 0.0 0.00 0.00 0.00 98 1014.4
20260906092256 23 207 0.0 0.0 0.00 0.00 0.00 98 1014.5
20260906091752 23 208 0.0 0.0 0.00 0.00 0.00 98 1014.4
20260906091247 23 208 0.0 0.0 0.00 0.00 0.00 98 1014.4
20260906090744 23 208 0.0 0.0 0.00 0.00 0.00 98 1014.2
20260906090243 23 211 0.0 0.0 0.00 0.00 0.00 98 1014.3
20260906085742 23 211 0.0 0.0 0.00 0.00 0.00 98 1014.3
20260906085241 23 200 0.0 0.0 0.00 0.00 0.00 98 1014.1
20260906084737 23 211 0.0 0.0 0.00 0.00 0.00 98 1014.2
20260906084236 23 209 0.0 0.0 0.00 0.00 0.00 98 1014.0
20260906083731 23 200 0.0 0.0 0.00 0.00 0.00 98 1014.2
20260906083226 23 204 0.0 0.0 0.00 0.00 0.00 97 1014.1
20260906082722 23 211 0.0 0.0 0.00 0.00 0.00 97 1014.0
20260906082217 23 208 0.0 0.0 0.00 0.00 0.00 97 1014.1
20260906081713 23 208 0.0 0.0 0.00 0.00 0.00 97 1014.1
20260906081208 23 208 0.0 0.0 0.00 0.00 0.00 97 1014.0
20260906080704 24 208 0.0 0.0 0.00 0.00 0.00 97 1013.9
20260906080200 24 208 0.0 1.6 0.00 0.00 0.00 97 1014.0
20260906075700 24 208 0.0 0.0 0.00 0.00 0.00 96 1014.2
20260906075154 24 208 0.0 1.6 0.00 0.00 0.00 96 1014.3
20260906074650 24 208 0.0 0.0 0.00 0.00 0.00 96 1014.1
20260906074149 24 207 0.0 1.6 0.00 0.00 0.00 96 1014.2
20260906073644 24 218 0.0 0.0 0.00 0.00 0.00 96 1014.3
20260906073139 24 218 0.0 0.0 0.00 0.00 0.00 96 1014.4
20260906072634 24 218 0.0 0.0 0.00 0.00 0.00 97 1014.4
20260906072130 25 218 0.0 0.0 0.00 0.00 0.00 97 1014.4
20260906071626 24 208 0.0 1.6 0.00 0.00 0.00 97 1014.4
20260906071121 24 222 0.0 0.0 0.00 0.00 0.00 98 1014.4
20260906070617 24 209 0.0 1.6 0.00 0.00 0.00 99 1014.6
20260906070113 25 222 0.0 0.0 0.00 0.00 0.00 99 1014.7
20260906065612 25 222 0.0 0.0 0.00 0.00 0.00 99 1014.8
20260906065108 25 211 0.0 0.0 0.00 0.00 0.00 98 1014.8
20260906064603 25 208 1.6 1.6 0.00 0.00 0.00 98 1014.4
20260906064059 25 224 0.0 0.0 0.00 0.00 0.00 98 1014.4
20260906063554 25 211 0.0 0.0 0.00 0.00 0.00 98 1014.4
20260906063050 25 203 0.0 0.0 0.00 0.00 0.00 98 1014.7
20260906062545 25 210 0.0 1.6 0.00 0.00 0.00 98 1014.7
20260906062044 25 103 1.6 3.2 0.00 0.00 0.00 98 1014.7
20260906061541 25 237 0.0 0.0 0.00 0.00 0.00 99 1014.7
20260906061039 25 277 1.6 1.6 0.00 0.00 0.00 99 1014.6
20260906060536 25 217 0.0 1.6 0.00 0.00 0.00 99 1014.7
20260906060033 25 211 1.6 1.6 0.00 0.00 0.00 98 1014.5
20260906055529 25 54 1.6 1.6 0.00 0.00 0.00 98 1014.6
20260906055024 25 221 0.0 4.8 0.00 0.00 0.00 98 1014.6
20260906054524 25 213 1.6 3.2 0.00 0.00 0.00 98 1014.2
20260906054019 25 34 1.6 1.6 0.00 0.00 0.00 98 1014.6
20260906053516 25 214 0.0 0.0 0.00 0.00 0.00 98 1014.6
20260906053011 25 214 1.6 1.6 0.00 0.00 0.00 97 1014.5
20260906052507 25 214 0.0 1.6 0.00 0.00 0.00 97 1014.5
20260906052003 25 213 1.6 1.6 0.00 0.00 0.00 97 1014.5
20260906051459 25 213 0.0 0.0 0.00 0.00 0.00 97 1014.8
20260906050954 25 198 3.2 3.2 0.00 0.00 0.00 97 1014.8
20260906050454 26 26 1.6 3.2 0.00 0.00 0.00 96 1015.0
20260906045953 26 225 3.2 4.8 0.00 0.00 0.00 96 1014.8
20260906045452 25 221 0.0 3.2 0.00 0.00 0.00 96 1014.7
20260906044948 25 11 0.0 1.6 0.00 0.00 0.00 96 1014.7
20260906044443 25 17 1.6 3.2 0.00 0.00 0.00 96 1014.8
20260906043939 26 312 3.2 3.2 0.00 0.00 0.00 95 1014.6
20260906043435 26 262 0.0 3.2 0.00 0.00 0.00 95 1014.7
20260906042930 26 232 0.0 0.0 0.00 0.00 0.00 96 1014.6
20260906042429 26 229 0.0 0.0 0.00 0.00 0.00 96 1014.7
20260906041924 26 229 1.6 1.6 0.00 0.00 0.00 96 1014.6
20260906041421 26 225 1.6 1.6 0.00 0.00 0.00 96 1014.7
20260906040920 26 226 1.6 1.6 0.00 0.00 0.00 95 1014.7
20260906040415 26 229 0.0 0.0 0.00 0.00 0.00 95 1014.9
20260906035911 26 229 0.0 0.0 0.00 0.00 0.00 95 1014.7
20260906035407 26 301 0.0 3.2 0.00 0.00 0.00 95 1014.7
20260906034902 26 160 0.0 3.2 0.00 0.00 0.00 95 1014.9
20260906034401 26 123 3.2 4.8 0.00 0.00 0.00 96 1014.8
20260906033858 26 45 4.8 4.8 0.00 0.00 0.00 95 1014.7
20260906033357 26 34 0.0 0.0 0.00 0.00 0.00 94 1014.5
20260906032853 26 83 0.0 0.0 0.00 0.00 0.00 94 1014.5
20260906032349 26 84 0.0 0.0 0.00 0.00 0.00 93 1014.3
20260906031844 26 81 0.0 0.0 0.00 0.00 0.00 92 1014.4
20260906031339 26 72 0.0 0.0 0.00 0.00 0.00 91 1014.2
20260906030839 26 15 0.0 0.0 0.00 0.00 0.00 90 1014.1
20260906030335 26 15 0.0 0.0 0.00 0.00 0.00 90 1014.0
20260906025835 26 15 0.0 0.0 0.00 0.00 0.00 90 1013.9
20260906025329 26 15 0.0 0.0 0.00 0.00 0.00 90 1014.0
20260906024828 26 19 0.0 0.0 0.00 0.00 0.00 90 1013.8
20260906024327 27 20 0.0 0.0 0.00 0.00 0.00 90 1013.9
20260906023823 27 19 0.0 0.0 0.00 0.00 0.00 89 1014.0
20260906023318 27 19 0.0 0.0 0.00 0.00 0.00 87 1013.6
20260906022814 27 19 0.0 0.0 0.00 0.00 0.00 86 1013.8
20260906022309 27 19 0.0 0.0 0.00 0.00 0.00 86 1013.7
20260906021805 27 206 0.0 0.0 0.00 0.00 0.00 85 1013.6
20260906021304 27 206 0.0 0.0 0.00 0.00 0.00 84 1013.6
20260906020759 28 206 0.0 0.0 0.00 0.00 0.00 83 1013.4
20260906020258 28 206 0.0 0.0 0.00 0.00 0.00 80 1013.4
20260906015758 28 233 0.0 0.0 0.00 0.00 0.00 78 1013.3
20260906015257 28 223 0.0 1.6 0.00 0.00 0.00 77 1013.3
20260906014751 28 228 0.0 0.0 0.00 0.00 0.00 81 1013.2
20260906014247 28 234 0.0 0.0 0.00 0.00 0.00 81 1013.5
20260906013743 28 234 0.0 0.0 0.00 0.00 0.00 81 1013.2
20260906013243 28 228 0.0 0.0 0.00 0.00 0.00 79 1013.3
20260906012739 28 236 0.0 0.0 0.00 0.00 0.00 78 1013.4
20260906012234 29 236 0.0 0.0 0.00 0.00 0.00 77 1013.4
20260906011729 29 234 0.0 0.0 0.00 0.00 0.00 75 1013.3
20260906011228 29 262 0.0 1.6 0.00 0.00 0.00 75 1013.2
20260906010724 29 206 0.0 0.0 0.00 0.00 0.00 77 1013.1
20260906010220 30 206 0.0 1.6 0.00 0.00 0.00 75 1013.4
20260906005715 30 206 0.0 0.0 0.00 0.00 0.00 73 1013.2
20260906005214 30 206 0.0 1.6 0.00 0.00 0.00 73 1013.2
20260906004713 31 228 0.0 0.0 0.00 0.00 0.00 69 1013.4
20260906004209 31 241 0.0 0.0 0.00 0.00 0.00 67 1013.4
20260906003704 31 236 0.0 1.6 0.00 0.00 0.00 66 1013.3
20260906003200 31 234 0.0 1.6 0.00 0.00 0.00 68 1013.4
20260906002659 31 206 0.0 1.6 0.00 0.00 0.00 68 1013.5
20260906002154 32 228 1.6 3.2 0.00 0.00 0.00 63 1013.5
20260906001650 32 240 1.6 1.6 0.00 0.00 0.00 63 1013.6
20260906001149 32 237 0.0 1.6 0.00 0.00 0.00 63 1013.3
20260906000645 32 215 1.6 3.2 0.00 0.00 0.00 62 1013.3
20260906000140 32 229 1.6 3.2 0.00 0.00 0.00 63 1013.2
20260905235639 32 207 1.6 3.2 0.00 0.00 0.00 61 1013.3
20260905235134 32 229 0.0 3.2 0.00 0.00 0.00 61 1013.3
20260905234630 32 234 1.6 1.6 0.00 0.00 0.00 61 1013.3
20260905234126 33 235 0.0 1.6 0.00 0.00 0.00 61 1013.5
20260905233626 33 217 1.6 1.6 0.00 0.00 0.00 59 1013.3
20260905233120 34 213 1.6 3.2 0.00 0.00 0.00 57 1013.3
20260905232616 35 239 1.6 4.8 0.00 0.00 0.00 56 1013.4
20260905232112 35 245 3.2 3.2 0.00 0.00 0.00 55 1013.2
20260905231612 35 216 3.2 6.4 0.00 0.00 0.00 56 1013.4
20260905231108 35 277 3.2 4.8 0.00 0.00 0.00 54 1013.5
20260905230603 36 237 1.6 3.2 0.00 0.00 0.00 53 1013.2
20260905225600 36 253 3.2 4.8 0.00 0.00 0.00 53 1013.3
20260905225056 36 232 1.6 3.2 0.00 0.00 0.00 52 1013.2
20260905224555 36 297 3.2 3.2 0.00 0.00 0.00 51 1013.1
20260905224055 36 233 3.2 9.7 0.00 0.00 0.00 52 1013.2
20260905223553 36 242 1.6 3.2 0.00 0.00 0.00 52 1013.1
20260905223049 37 241 1.6 3.2 0.00 0.00 0.00 50 1013.1
20260905222548 36 242 3.2 4.8 0.00 0.00 0.00 52 1013.2
20260905222044 36 232 0.0 4.8 0.00 0.00 0.00 52 1013.3
20260905221540 37 185 6.4 9.7 0.00 0.00 0.00 51 1013.2
20260905221036 37 306 3.2 9.7 0.00 0.00 0.00 50 1013.3
20260905220531 37 288 6.4 9.7 0.00 0.00 0.00 48 1013.4
20260905220027 37 239 0.0 1.6 0.00 0.00 0.00 48 1013.4
20260905215526 38 229 3.2 4.8 0.00 0.00 0.00 48 1013.2
20260905215023 37 211 0.0 4.8 0.00 0.00 0.00 50 1013.1
20260905214518 37 303 1.6 6.4 0.00 0.00 0.00 48 1013.3
20260905214013 37 295 4.8 6.4 0.00 0.00 0.00 48 1013.3
20260905213509 37 230 0.0 4.8 0.00 0.00 0.00 46 1013.5
20260905213004 38 273 1.6 4.8 0.00 0.00 0.00 45 1013.5
20260905212459 38 351 3.2 4.8 0.00 0.00 0.00 46 1013.4
20260905211958 38 251 0.0 3.2 0.00 0.00 0.00 45 1013.5
20260905211454 38 10 3.2 4.8 0.00 0.00 0.00 48 1013.5
20260905210949 38 243 1.6 6.4 0.00 0.00 0.00 47 1013.5
20260905210445 38 211 1.6 4.8 0.00 0.00 0.00 48 1013.3
20260905205944 38 250 0.0 3.2 0.00 0.00 0.00 47 1013.5
20260905205439 38 349 1.6 3.2 0.00 0.00 0.00 45 1013.5
20260905204938 37 322 3.2 6.4 0.00 0.00 0.00 46 1013.6
20260905204434 37 237 1.6 6.4 0.00 0.00 0.00 46 1013.7
20260905203933 38 316 1.6 4.8 0.00 0.00 0.00 45 1013.8
20260905203428 38 234 3.2 4.8 0.00 0.00 0.00 47 1013.7
20260905202924 38 237 3.2 4.8 0.00 0.00 0.00 47 1014.1
20260905202419 38 192 3.2 3.2 0.00 0.00 0.00 47 1014.3
20260905201914 37 216 1.6 4.8 0.00 0.00 0.00 47 1014.2
20260905201410 37 358 3.2 9.7 0.00 0.00 0.00 49 1014.2
20260905200909 37 358 1.6 3.2 0.00 0.00 0.00 48 1014.2
20260905200405 38 316 3.2 4.8 0.00 0.00 0.00 45 1014.5
20260905195903 37 275 4.8 4.8 0.00 0.00 0.00 48 1014.4
20260905195359 37 166 3.2 4.8 0.00 0.00 0.00 48 1014.5
20260905194854 37 246 0.0 1.6 0.00 0.00 0.00 48 1014.5
20260905194354 36 261 0.0 4.8 0.00 0.00 0.00 50 1014.6
20260905193853 36 344 4.8 6.4 0.00 0.00 0.00 50 1014.7
20260905193348 36 255 1.6 4.8 0.00 0.00 0.00 51 1014.6
20260905192844 36 19 1.6 4.8 0.00 0.00 0.00 49 1014.5
20260905192340 36 13 3.2 6.4 0.00 0.00 0.00 48 1014.6
20260905191839 37 60 9.7 11.3 0.00 0.00 0.00 48 1014.8
20260905191338 38 17 1.6 3.2 0.00 0.00 0.00 46 1014.8
20260905190837 38 204 1.6 1.6 0.00 0.00 0.00 46 1014.8
20260905190336 37 264 1.6 4.8 0.00 0.00 0.00 49 1015.0
20260905185835 37 197 1.6 3.2 0.00 0.00 0.00 49 1015.1
20260905185331 37 204 0.0 3.2 0.00 0.00 0.00 46 1015.2
20260905184830 37 193 3.2 3.2 0.00 0.00 0.00 47 1015.3
20260905184329 38 146 0.0 1.6 0.00 0.00 0.00 51 1015.2
20260905183828 38 241 1.6 1.6 0.00 0.00 0.00 49 1015.4
20260905183323 36 17 1.6 4.8 0.00 0.00 0.00 50 1015.5
20260905182818 36 219 1.6 1.6 0.00 0.00 0.00 55 1015.5
20260905182318 35 123 3.2 3.2 0.00 0.00 0.00 54 1015.7
20260905181813 35 13 0.0 3.2 0.00 0.00 0.00 57 1015.8
20260905181312 36 9 3.2 4.8 0.00 0.00 0.00 56 1015.8
20260905180811 36 356 3.2 9.7 0.00 0.00 0.00 55 1016.0
20260905180307 37 51 0.0 3.2 0.00 0.00 0.00 51 1015.9
20260905175801 37 235 3.2 4.8 0.00 0.00 0.00 50 1016.1
20260905175256 37 217 0.0 3.2 0.00 0.00 0.00 50 1016.1
20260905174751 36 97 1.6 3.2 0.00 0.00 0.00 51 1016.0
20260905174247 35 73 0.0 1.6 0.00 0.00 0.00 53 1016.0
20260905173743 36 97 1.6 3.2 0.00 0.00 0.00 52 1016.3
20260905173239 36 82 1.6 4.8 0.00 0.00 0.00 53 1016.1
20260905172733 36 227 1.6 4.8 0.00 0.00 0.00 53 1016.2
20260905172232 35 76 1.6 6.4 0.00 0.00 0.00 54 1016.1
20260905171728 35 98 3.2 6.4 0.00 0.00 0.00 56 1016.2
20260905171224 36 13 3.2 12.9 0.00 0.00 0.00 56 1016.2
20260905170721 37 12 6.4 9.7 0.00 0.00 0.00 56 1016.3
20260905170222 36 40 0.0 1.6 0.00 0.00 0.00 54 1016.7
20260905165721 35 252 3.2 6.4 0.00 0.00 0.00 57 1016.5
20260905165216 35 64 3.2 4.8 0.00 0.00 0.00 56 1016.5
20260905164711 36 39 4.8 6.4 0.00 0.00 0.00 57 1016.6
20260905164211 36 185 1.6 6.4 0.00 0.00 0.00 57 1016.6
20260905163706 37 139 3.2 4.8 0.00 0.00 0.00 54 1016.7
20260905163203 36 184 1.6 1.6 0.00 0.00 0.00 55 1016.8
20260905162659 35 196 0.0 3.2 0.00 0.00 0.00 57 1016.8
20260905162158 34 303 1.6 3.2 0.00 0.00 0.00 60 1016.9
20260905161653 35 13 3.2 11.3 0.00 0.00 0.00 59 1016.9
20260905161151 35 45 3.2 6.4 0.00 0.00 0.00 59 1016.9
20260905160650 35 356 8.0 9.7 0.00 0.00 0.00 59 1016.8
20260905160149 33 233 1.6 6.4 0.00 0.00 0.00 62 1016.8
20260905155644 35 293 4.8 6.4 0.00 0.00 0.00 62 1016.9
20260905155143 33 321 1.6 6.4 0.00 0.00 0.00 64 1016.8
20260905154637 34 215 1.6 4.8 0.00 0.00 0.00 63 1017.0
20260905154133 33 276 0.0 4.8 0.00 0.00 0.00 64 1017.0
20260905153629 33 18 1.6 3.2 0.00 0.00 0.00 65 1017.0
20260905153124 33 328 6.4 9.7 0.00 0.00 0.00 69 1017.1
20260905152619 33 82 1.6 3.2 0.00 0.00 0.00 68 1017.0
20260905152113 32 358 3.2 4.8 0.00 0.00 0.00 72 1017.3
20260905151609 33 323 1.6 4.8 0.00 0.00 0.00 70 1017.2
20260905151104 32 299 0.0 4.8 0.00 0.00 0.00 73 1017.2
20260905150559 33 137 0.0 1.6 0.00 0.00 0.00 70 1017.3
20260905150058 33 234 1.6 3.2 0.00 0.00 0.00 72 1017.3
20260905145556 32 208 1.6 1.6 0.00 0.00 0.00 76 1017.5
20260905145055 32 73 0.0 1.6 0.00 0.00 0.00 75 1017.4
20260905144550 32 113 0.0 1.6 0.00 0.00 0.00 77 1017.4
20260905144049 31 59 1.6 3.2 0.00 0.00 0.00 78 1017.4
20260905143543 30 113 1.6 1.6 0.00 0.00 0.00 81 1017.5
20260905143039 30 52 3.2 9.7 0.00 0.00 0.00 81 1017.5
20260905142537 30 157 0.0 1.6 0.00 0.00 0.00 80 1017.5
20260905142032 30 92 0.0 3.2 0.00 0.00 0.00 80 1017.5
20260905141527 29 210 0.0 1.6 0.00 0.00 0.00 85 1017.6
20260905141024 28 143 0.0 3.2 0.00 0.00 0.00 87 1017.6
20260905140523 28 100 3.2 4.8 0.00 0.00 0.00 88 1017.6
20260905140022 28 47 1.6 3.2 0.00 0.00 0.00 86 1017.3
20260905135518 29 261 0.0 0.0 0.00 0.00 0.00 84 1017.6
20260905135014 28 261 0.0 0.0 0.00 0.00 0.00 84 1017.4
20260905134514 28 261 0.0 0.0 0.00 0.00 0.00 86 1017.4
20260905134013 27 265 1.6 1.6 0.00 0.00 0.00 89 1017.5
20260905133508 26 245 0.0 0.0 0.00 0.00 0.00 93 1017.5
20260905133002 25 242 0.0 0.0 0.00 0.00 0.00 99 1017.4
20260905132457 25 241 0.0 0.0 0.00 0.00 0.00 99 1017.6
20260905131957 24 239 0.0 0.0 0.00 0.00 0.00 99 1017.5
20260905131453 23 238 0.0 0.0 0.00 0.00 0.00 99 1017.5
20260905130948 23 238 0.0 0.0 0.00 0.00 0.00 99 1017.4
20260905130447 23 238 0.0 0.0 0.00 0.00 0.00 99 1017.5
20260905125947 23 238 0.0 0.0 0.00 0.00 0.00 99 1017.5
20260905125442 23 238 0.0 0.0 0.00 0.00 0.00 99 1017.5
20260905124937 23 215 0.0 0.0 0.00 0.00 0.00 99 1017.6
20260905124434 23 234 0.0 0.0 0.00 0.00 0.00 99 1017.4
20260905123934 23 233 0.0 0.0 0.00 0.00 0.00 99 1017.7
20260905123430 23 234 0.0 0.0 0.00 0.00 0.00 99 1017.5
20260905122925 23 234 0.0 0.0 0.00 0.00 0.00 99 1017.4
20260905122425 23 233 0.0 0.0 0.00 0.00 0.00 99 1017.4
20260905121921 22 233 0.0 0.0 0.00 0.00 0.00 99 1017.3